Year,Month,Day,Hour,Minute,Value (Times are PST for temperature in C)
2013,09,11,00,00,14.80
2013,09,11,00,01,14.90
2013,09,11,00,02,14.90
2013,09,11,00,03,15.00
2013,09,11,00,04,15.00
2013,09,11,00,05,15.10
2013,09,11,00,06,15.10
2013,09,11,00,07,15.10
2013,09,11,00,08,15.10
2013,09,11,00,09,15.10
2013,09,11,00,10,15.00
2013,09,11,00,11,15.00
2013,09,11,00,12,14.90
2013,09,11,00,13,14.80
2013,09,11,00,14,14.80
2013,09,11,00,15,14.80
2013,09,11,00,16,14.80
2013,09,11,00,17,14.80
2013,09,11,00,18,14.80
2013,09,11,00,19,14.80
2013,09,11,00,20,14.90
2013,09,11,00,21,14.90
2013,09,11,00,22,14.90
2013,09,11,00,23,14.80
2013,09,11,00,24,14.80
2013,09,11,00,25,14.80
2013,09,11,00,26,14.90
2013,09,11,00,27,14.90
2013,09,11,00,28,14.90
2013,09,11,00,29,14.90
2013,09,11,00,30,14.90
2013,09,11,00,31,14.90
2013,09,11,00,32,14.90
2013,09,11,00,33,14.90
2013,09,11,00,34,14.90
2013,09,11,00,35,14.90
2013,09,11,00,36,14.90
2013,09,11,00,37,14.90
2013,09,11,00,38,15.00
2013,09,11,00,39,15.00
2013,09,11,00,40,15.10
2013,09,11,00,41,15.10
2013,09,11,00,42,15.10
2013,09,11,00,43,15.10
2013,09,11,00,44,15.10
2013,09,11,00,45,15.10
2013,09,11,00,46,15.10
2013,09,11,00,47,15.10
2013,09,11,00,48,15.10
2013,09,11,00,49,15.20
2013,09,11,00,50,15.20
2013,09,11,00,51,15.20
2013,09,11,00,52,15.20
2013,09,11,00,53,15.20
2013,09,11,00,54,15.20
2013,09,11,00,55,15.20
2013,09,11,00,56,15.20
2013,09,11,00,57,15.20
2013,09,11,00,58,15.20
2013,09,11,00,59,15.20
2013,09,11,01,00,15.20
2013,09,11,01,01,15.20
2013,09,11,01,02,15.30
2013,09,11,01,03,15.30
2013,09,11,01,04,15.30
2013,09,11,01,05,15.30
2013,09,11,01,06,15.30
2013,09,11,01,07,15.30
2013,09,11,01,08,15.20
2013,09,11,01,09,15.20
2013,09,11,01,10,15.20
2013,09,11,01,11,15.20
2013,09,11,01,12,15.20
2013,09,11,01,13,15.20
2013,09,11,01,14,15.10
2013,09,11,01,15,15.10
2013,09,11,01,16,15.10
2013,09,11,01,17,15.10
2013,09,11,01,18,15.00
2013,09,11,01,19,15.00
2013,09,11,01,20,14.90
2013,09,11,01,21,14.90
2013,09,11,01,22,14.90
2013,09,11,01,23,14.80
2013,09,11,01,24,14.80
2013,09,11,01,25,14.80
2013,09,11,01,26,14.80
2013,09,11,01,27,14.70
2013,09,11,01,28,14.70
2013,09,11,01,29,14.70
2013,09,11,01,30,14.70
2013,09,11,01,31,14.60
2013,09,11,01,32,14.60
2013,09,11,01,33,14.60
2013,09,11,01,34,14.60
2013,09,11,01,35,14.60
2013,09,11,01,36,14.60
2013,09,11,01,37,14.60
2013,09,11,01,38,14.60
2013,09,11,01,39,14.60
2013,09,11,01,40,14.60
2013,09,11,01,41,14.60
2013,09,11,01,42,14.60
2013,09,11,01,43,14.60
2013,09,11,01,44,14.60
2013,09,11,01,45,14.60
2013,09,11,01,46,14.60
2013,09,11,01,47,14.60
2013,09,11,01,48,14.70
2013,09,11,01,49,14.70
2013,09,11,01,50,14.70
2013,09,11,01,51,14.70
2013,09,11,01,52,14.70
2013,09,11,01,53,14.70
2013,09,11,01,54,14.70
2013,09,11,01,55,14.70
2013,09,11,01,56,14.60
2013,09,11,01,57,14.60
2013,09,11,01,58,14.60
2013,09,11,01,59,14.60
2013,09,11,02,00,14.50
2013,09,11,02,01,14.50
2013,09,11,02,02,14.50
2013,09,11,02,03,14.60
2013,09,11,02,04,14.60
2013,09,11,02,05,14.60
2013,09,11,02,06,14.60
2013,09,11,02,07,14.70
2013,09,11,02,08,14.70
2013,09,11,02,09,14.70
2013,09,11,02,10,14.70
2013,09,11,02,11,14.70
2013,09,11,02,12,14.70
2013,09,11,02,13,14.70
2013,09,11,02,14,14.70
2013,09,11,02,15,14.70
2013,09,11,02,16,14.70
2013,09,11,02,17,14.70
2013,09,11,02,18,14.70
2013,09,11,02,19,14.70
2013,09,11,02,20,14.70
2013,09,11,02,21,14.70
2013,09,11,02,22,14.70
2013,09,11,02,23,14.70
2013,09,11,02,24,14.70
2013,09,11,02,25,14.80
2013,09,11,02,26,14.80
2013,09,11,02,27,14.70
2013,09,11,02,28,14.70
2013,09,11,02,29,14.70
2013,09,11,02,30,14.70
2013,09,11,02,31,14.70
2013,09,11,02,32,14.70
2013,09,11,02,33,14.70
2013,09,11,02,34,14.70
2013,09,11,02,35,14.70
2013,09,11,02,36,14.70
2013,09,11,02,37,14.70
2013,09,11,02,38,14.70
2013,09,11,02,39,14.70
2013,09,11,02,40,14.70
2013,09,11,02,41,14.70
2013,09,11,02,42,14.70
2013,09,11,02,43,14.70
2013,09,11,02,44,14.70
2013,09,11,02,45,14.70
2013,09,11,02,46,14.70
2013,09,11,02,47,14.70
2013,09,11,02,48,14.70
2013,09,11,02,49,14.70
2013,09,11,02,50,14.70
2013,09,11,02,51,14.70
2013,09,11,02,52,14.70
2013,09,11,02,53,14.70
2013,09,11,02,54,14.70
2013,09,11,02,55,14.70
2013,09,11,02,56,14.70
2013,09,11,02,57,14.70
2013,09,11,02,58,14.70
2013,09,11,02,59,14.70
2013,09,11,03,00,14.70
2013,09,11,03,01,14.70
2013,09,11,03,02,14.70
2013,09,11,03,03,14.70
2013,09,11,03,04,14.70
2013,09,11,03,05,14.70
2013,09,11,03,06,14.70
2013,09,11,03,07,14.70
2013,09,11,03,08,14.70
2013,09,11,03,09,14.70
2013,09,11,03,10,14.70
2013,09,11,03,11,14.70
2013,09,11,03,12,14.60
2013,09,11,03,13,14.60
2013,09,11,03,14,14.60
2013,09,11,03,15,14.60
2013,09,11,03,16,14.60
2013,09,11,03,17,14.60
2013,09,11,03,18,14.60
2013,09,11,03,19,14.60
2013,09,11,03,20,14.60
2013,09,11,03,21,14.60
2013,09,11,03,22,14.60
2013,09,11,03,23,14.60
2013,09,11,03,24,14.60
2013,09,11,03,25,14.60
2013,09,11,03,26,14.60
2013,09,11,03,27,14.60
2013,09,11,03,28,14.60
2013,09,11,03,29,14.60
2013,09,11,03,30,14.60
2013,09,11,03,31,14.60
2013,09,11,03,32,14.60
2013,09,11,03,33,14.60
2013,09,11,03,34,14.60
2013,09,11,03,35,14.60
2013,09,11,03,36,14.60
2013,09,11,03,37,14.60
2013,09,11,03,38,14.60
2013,09,11,03,39,14.60
2013,09,11,03,40,14.60
2013,09,11,03,41,14.60
2013,09,11,03,42,14.60
2013,09,11,03,43,14.60
2013,09,11,03,44,14.60
2013,09,11,03,45,14.60
2013,09,11,03,46,14.60
2013,09,11,03,47,14.60
2013,09,11,03,48,14.50
2013,09,11,03,49,14.50
2013,09,11,03,50,14.60
2013,09,11,03,51,14.50
2013,09,11,03,52,14.50
2013,09,11,03,53,14.50
2013,09,11,03,54,14.50
2013,09,11,03,55,14.50
2013,09,11,03,56,14.50
2013,09,11,03,57,14.50
2013,09,11,03,58,14.50
2013,09,11,03,59,14.50
2013,09,11,04,00,14.50
2013,09,11,04,01,14.40
2013,09,11,04,02,14.40
2013,09,11,04,03,14.40
2013,09,11,04,04,14.40
2013,09,11,04,05,14.40
2013,09,11,04,06,14.30
2013,09,11,04,07,14.30
2013,09,11,04,08,14.30
2013,09,11,04,09,14.30
2013,09,11,04,10,14.30
2013,09,11,04,11,14.30
2013,09,11,04,12,14.30
2013,09,11,04,13,14.30
2013,09,11,04,14,14.30
2013,09,11,04,15,14.30
2013,09,11,04,16,14.30
2013,09,11,04,17,14.30
2013,09,11,04,18,14.30
2013,09,11,04,19,14.30
2013,09,11,04,20,14.30
2013,09,11,04,21,14.30
2013,09,11,04,22,14.30
2013,09,11,04,23,14.30
2013,09,11,04,24,14.30
2013,09,11,04,25,14.30
2013,09,11,04,26,14.30
2013,09,11,04,27,14.40
2013,09,11,04,28,14.40
2013,09,11,04,29,14.40
2013,09,11,04,30,14.40
2013,09,11,04,31,14.40
2013,09,11,04,32,14.40
2013,09,11,04,33,14.50
2013,09,11,04,34,14.50
2013,09,11,04,35,14.50
2013,09,11,04,36,14.60
2013,09,11,04,37,14.60
2013,09,11,04,38,14.60
2013,09,11,04,39,14.60
2013,09,11,04,40,14.70
2013,09,11,04,41,14.70
2013,09,11,04,42,14.70
2013,09,11,04,43,14.70
2013,09,11,04,44,14.70
2013,09,11,04,45,14.70
2013,09,11,04,46,14.70
2013,09,11,04,47,14.70
2013,09,11,04,48,14.70
2013,09,11,04,49,14.70
2013,09,11,04,50,14.80
2013,09,11,04,51,14.70
2013,09,11,04,52,14.70
2013,09,11,04,53,14.70
2013,09,11,04,54,14.70
2013,09,11,04,55,14.70
2013,09,11,04,56,14.70
2013,09,11,04,57,14.70
2013,09,11,04,58,14.70
2013,09,11,04,59,14.70
2013,09,11,05,00,14.70
2013,09,11,05,01,14.70
2013,09,11,05,02,14.70
2013,09,11,05,03,14.70
2013,09,11,05,04,14.70
2013,09,11,05,05,14.70
2013,09,11,05,06,14.70
2013,09,11,05,07,14.70
2013,09,11,05,08,14.70
2013,09,11,05,09,14.70
2013,09,11,05,10,14.70
2013,09,11,05,11,14.70
2013,09,11,05,12,14.70
2013,09,11,05,13,14.70
2013,09,11,05,14,14.70
2013,09,11,05,15,14.80
2013,09,11,05,16,14.80
2013,09,11,05,17,14.80
2013,09,11,05,18,14.80
2013,09,11,05,19,14.80
2013,09,11,05,20,14.80
2013,09,11,05,21,14.80
2013,09,11,05,22,14.80
2013,09,11,05,23,14.80
2013,09,11,05,24,14.80
2013,09,11,05,25,14.80
2013,09,11,05,26,14.80
2013,09,11,05,27,14.80
2013,09,11,05,28,14.80
2013,09,11,05,29,14.80
2013,09,11,05,30,14.80
2013,09,11,05,31,14.80
2013,09,11,05,32,14.90
2013,09,11,05,33,14.90
2013,09,11,05,34,14.90
2013,09,11,05,35,14.90
2013,09,11,05,36,14.90
2013,09,11,05,37,14.90
2013,09,11,05,38,14.90
2013,09,11,05,39,14.90
2013,09,11,05,40,14.90
2013,09,11,05,41,14.90
2013,09,11,05,42,14.90
2013,09,11,05,43,14.90
2013,09,11,05,44,14.90
2013,09,11,05,45,14.90
2013,09,11,05,46,14.90
2013,09,11,05,47,14.90
2013,09,11,05,48,14.90
2013,09,11,05,49,14.90
2013,09,11,05,50,14.90
2013,09,11,05,51,14.90
2013,09,11,05,52,14.90
2013,09,11,05,53,14.90
2013,09,11,05,54,14.90
2013,09,11,05,55,14.90
2013,09,11,05,56,14.90
2013,09,11,05,57,14.90
2013,09,11,05,58,14.90
2013,09,11,05,59,14.90
2013,09,11,06,00,14.90
2013,09,11,06,01,14.90
2013,09,11,06,02,14.90
2013,09,11,06,03,14.90
2013,09,11,06,04,14.90
2013,09,11,06,05,14.90
2013,09,11,06,06,14.90
2013,09,11,06,07,14.90
2013,09,11,06,08,14.90
2013,09,11,06,09,14.90
2013,09,11,06,10,14.90
2013,09,11,06,11,14.90
2013,09,11,06,12,14.90
2013,09,11,06,13,14.90
2013,09,11,06,14,14.90
2013,09,11,06,15,14.90
2013,09,11,06,16,14.90
2013,09,11,06,17,14.90
2013,09,11,06,18,14.90
2013,09,11,06,19,14.90
2013,09,11,06,20,14.90
2013,09,11,06,21,14.90
2013,09,11,06,22,15.00
2013,09,11,06,23,15.00
2013,09,11,06,24,15.00
2013,09,11,06,25,15.10
2013,09,11,06,26,15.10
2013,09,11,06,27,15.10
2013,09,11,06,28,15.10
2013,09,11,06,29,15.10
2013,09,11,06,30,15.10
2013,09,11,06,31,15.10
2013,09,11,06,32,15.10
2013,09,11,06,33,15.10
2013,09,11,06,34,15.10
2013,09,11,06,35,15.10
2013,09,11,06,36,15.10
2013,09,11,06,37,15.10
2013,09,11,06,38,15.10
2013,09,11,06,39,15.10
2013,09,11,06,40,15.10
2013,09,11,06,41,15.00
2013,09,11,06,42,15.00
2013,09,11,06,43,15.00
2013,09,11,06,44,15.00
2013,09,11,06,45,15.10
2013,09,11,06,46,15.10
2013,09,11,06,47,15.10
2013,09,11,06,48,15.10
2013,09,11,06,49,15.10
2013,09,11,06,50,15.10
2013,09,11,06,51,15.10
2013,09,11,06,52,15.10
2013,09,11,06,53,15.10
2013,09,11,06,54,15.10
2013,09,11,06,55,15.10
2013,09,11,06,56,15.10
2013,09,11,06,57,15.10
2013,09,11,06,58,15.10
2013,09,11,06,59,15.20
2013,09,11,07,00,15.20
2013,09,11,07,01,15.20
2013,09,11,07,02,15.20
2013,09,11,07,03,15.20
2013,09,11,07,04,15.20
2013,09,11,07,05,15.20
2013,09,11,07,06,15.20
2013,09,11,07,07,15.30
2013,09,11,07,08,15.30
2013,09,11,07,09,15.30
2013,09,11,07,10,15.30
2013,09,11,07,11,15.30
2013,09,11,07,12,15.30
2013,09,11,07,13,15.30
2013,09,11,07,14,15.30
2013,09,11,07,15,15.30
2013,09,11,07,16,15.30
2013,09,11,07,17,15.30
2013,09,11,07,18,15.30
2013,09,11,07,19,15.20
2013,09,11,07,20,15.20
2013,09,11,07,21,15.20
2013,09,11,07,22,15.20
2013,09,11,07,23,15.20
2013,09,11,07,24,15.20
2013,09,11,07,25,15.20
2013,09,11,07,26,15.20
2013,09,11,07,27,15.20
2013,09,11,07,28,15.20
2013,09,11,07,29,15.20
2013,09,11,07,30,15.20
2013,09,11,07,31,15.20
2013,09,11,07,32,15.20
2013,09,11,07,33,15.20
2013,09,11,07,34,15.10
2013,09,11,07,35,15.10
2013,09,11,07,36,15.10
2013,09,11,07,37,15.10
2013,09,11,07,38,15.10
2013,09,11,07,39,15.10
2013,09,11,07,40,15.20
2013,09,11,07,41,15.20
2013,09,11,07,42,15.20
2013,09,11,07,43,15.20
2013,09,11,07,44,15.20
2013,09,11,07,45,15.20
2013,09,11,07,46,15.20
2013,09,11,07,47,15.20
2013,09,11,07,48,15.30
2013,09,11,07,49,15.30
2013,09,11,07,50,15.30
2013,09,11,07,51,15.40
2013,09,11,07,52,15.50
2013,09,11,07,53,15.60
2013,09,11,07,54,15.70
2013,09,11,07,55,15.80
2013,09,11,07,56,15.90
2013,09,11,07,57,15.90
2013,09,11,07,58,16.00
2013,09,11,07,59,16.10
2013,09,11,08,00,16.10
2013,09,11,08,01,16.20
2013,09,11,08,02,16.30
2013,09,11,08,03,16.30
2013,09,11,08,04,16.40
2013,09,11,08,05,16.40
2013,09,11,08,06,16.40
2013,09,11,08,07,16.50
2013,09,11,08,08,16.50
2013,09,11,08,09,16.60
2013,09,11,08,10,16.60
2013,09,11,08,11,16.60
2013,09,11,08,12,16.70
2013,09,11,08,13,16.70
2013,09,11,08,14,16.80
2013,09,11,08,15,16.90
2013,09,11,08,16,16.90
2013,09,11,08,17,17.00
2013,09,11,08,18,17.00
2013,09,11,08,19,17.10
2013,09,11,08,20,17.10
2013,09,11,08,21,17.20
2013,09,11,08,22,17.20
2013,09,11,08,23,17.20
2013,09,11,08,24,17.30
2013,09,11,08,25,17.30
2013,09,11,08,26,17.30
2013,09,11,08,27,17.30
2013,09,11,08,28,17.30
2013,09,11,08,29,17.30
2013,09,11,08,30,17.30
2013,09,11,08,31,17.30
2013,09,11,08,32,17.30
2013,09,11,08,33,17.30
2013,09,11,08,34,17.30
2013,09,11,08,35,17.30
2013,09,11,08,36,17.40
2013,09,11,08,37,17.40
2013,09,11,08,38,17.40
2013,09,11,08,39,17.40
2013,09,11,08,40,17.50
2013,09,11,08,41,17.50
2013,09,11,08,42,17.60
2013,09,11,08,43,17.60
2013,09,11,08,44,17.70
2013,09,11,08,45,17.70
2013,09,11,08,46,17.80
2013,09,11,08,47,17.80
2013,09,11,08,48,17.90
2013,09,11,08,49,17.90
2013,09,11,08,50,18.00
2013,09,11,08,51,18.00
2013,09,11,08,52,18.10
2013,09,11,08,53,18.10
2013,09,11,08,54,18.20
2013,09,11,08,55,18.30
2013,09,11,08,56,18.40
2013,09,11,08,57,18.50
2013,09,11,08,58,18.60
2013,09,11,08,59,18.70
2013,09,11,09,00,18.70
2013,09,11,09,01,18.80
2013,09,11,09,02,18.80
2013,09,11,09,03,18.90
2013,09,11,09,04,19.00
2013,09,11,09,05,19.10
2013,09,11,09,06,19.20
2013,09,11,09,07,19.30
2013,09,11,09,08,19.40
2013,09,11,09,09,19.50
2013,09,11,09,10,19.60
2013,09,11,09,11,19.70
2013,09,11,09,12,19.70
2013,09,11,09,13,19.70
2013,09,11,09,14,19.80
2013,09,11,09,15,19.80
2013,09,11,09,16,19.80
2013,09,11,09,17,19.70
2013,09,11,09,18,19.70
2013,09,11,09,19,19.70
2013,09,11,09,20,19.70
2013,09,11,09,21,19.70
2013,09,11,09,22,19.70
2013,09,11,09,23,19.60
2013,09,11,09,24,19.60
2013,09,11,09,25,19.60
2013,09,11,09,26,19.60
2013,09,11,09,27,19.60
2013,09,11,09,28,19.60
2013,09,11,09,29,19.50
2013,09,11,09,30,19.60
2013,09,11,09,31,19.60
2013,09,11,09,32,19.60
2013,09,11,09,33,19.60
2013,09,11,09,34,19.60
2013,09,11,09,35,19.60
2013,09,11,09,36,19.60
2013,09,11,09,37,19.60
2013,09,11,09,38,19.60
2013,09,11,09,39,19.60
2013,09,11,09,40,19.60
2013,09,11,09,41,19.70
2013,09,11,09,42,19.70
2013,09,11,09,43,19.80
2013,09,11,09,44,19.80
2013,09,11,09,45,19.90
2013,09,11,09,46,19.90
2013,09,11,09,47,20.00
2013,09,11,09,48,20.00
2013,09,11,09,49,20.10
2013,09,11,09,50,20.20
2013,09,11,09,51,20.20
2013,09,11,09,52,20.30
2013,09,11,09,53,20.30
2013,09,11,09,54,20.40
2013,09,11,09,55,20.40
2013,09,11,09,56,20.50
2013,09,11,09,57,20.60
2013,09,11,09,58,20.60
2013,09,11,09,59,20.70
2013,09,11,10,00,20.80
2013,09,11,10,01,20.80
2013,09,11,10,02,20.90
2013,09,11,10,03,20.90
2013,09,11,10,04,21.00
2013,09,11,10,05,21.10
2013,09,11,10,06,21.20
2013,09,11,10,07,21.30
2013,09,11,10,08,21.30
2013,09,11,10,09,21.40
2013,09,11,10,10,21.40
2013,09,11,10,11,21.40
2013,09,11,10,12,21.40
2013,09,11,10,13,21.40
2013,09,11,10,14,21.40
2013,09,11,10,15,21.40
2013,09,11,10,16,21.40
2013,09,11,10,17,21.50
2013,09,11,10,18,21.50
2013,09,11,10,19,21.50
2013,09,11,10,20,21.60
2013,09,11,10,21,21.60
2013,09,11,10,22,21.60
2013,09,11,10,23,21.70
2013,09,11,10,24,21.70
2013,09,11,10,25,21.80
2013,09,11,10,26,21.90
2013,09,11,10,27,21.90
2013,09,11,10,28,21.90
2013,09,11,10,29,21.90
2013,09,11,10,30,21.90
2013,09,11,10,31,22.00
2013,09,11,10,32,22.00
2013,09,11,10,33,22.00
2013,09,11,10,34,22.10
2013,09,11,10,35,22.10
2013,09,11,10,36,22.10
2013,09,11,10,37,22.10
2013,09,11,10,38,22.10
2013,09,11,10,39,22.20
2013,09,11,10,40,22.20
2013,09,11,10,41,22.30
2013,09,11,10,42,22.30
2013,09,11,10,43,22.30
2013,09,11,10,44,22.40
2013,09,11,10,45,22.40
2013,09,11,10,46,22.40
2013,09,11,10,47,22.40
2013,09,11,10,48,22.40
2013,09,11,10,49,22.40
2013,09,11,10,50,22.40
2013,09,11,10,51,22.40
2013,09,11,10,52,22.40
2013,09,11,10,53,22.40
2013,09,11,10,54,22.40
2013,09,11,10,55,22.50
2013,09,11,10,56,22.50
2013,09,11,10,57,22.60
2013,09,11,10,58,22.60
2013,09,11,10,59,22.60
2013,09,11,11,00,22.70
2013,09,11,11,01,22.80
2013,09,11,11,02,22.80
2013,09,11,11,03,22.90
2013,09,11,11,04,22.90
2013,09,11,11,05,23.00
2013,09,11,11,06,23.10
2013,09,11,11,07,23.20
2013,09,11,11,08,23.30
2013,09,11,11,09,23.40
2013,09,11,11,10,23.50
2013,09,11,11,11,23.60
2013,09,11,11,12,23.70
2013,09,11,11,13,23.80
2013,09,11,11,14,23.90
2013,09,11,11,15,24.00
2013,09,11,11,16,24.10
2013,09,11,11,17,24.20
2013,09,11,11,18,24.20
2013,09,11,11,19,24.30
2013,09,11,11,20,24.40
2013,09,11,11,21,24.40
2013,09,11,11,22,24.40
2013,09,11,11,23,24.40
2013,09,11,11,24,24.40
2013,09,11,11,25,24.40
2013,09,11,11,26,24.40
2013,09,11,11,27,24.50
2013,09,11,11,28,24.50
2013,09,11,11,29,24.60
2013,09,11,11,30,24.60
2013,09,11,11,31,24.50
2013,09,11,11,32,24.50
2013,09,11,11,33,24.50
2013,09,11,11,34,24.50
2013,09,11,11,35,24.40
2013,09,11,11,36,24.40
2013,09,11,11,37,24.50
2013,09,11,11,38,24.50
2013,09,11,11,39,24.50
2013,09,11,11,40,24.70
2013,09,11,11,41,24.80
2013,09,11,11,42,24.80
2013,09,11,11,43,24.90
2013,09,11,11,44,25.00
2013,09,11,11,45,25.00
2013,09,11,11,46,25.10
2013,09,11,11,47,25.10
2013,09,11,11,48,25.10
2013,09,11,11,49,25.00
2013,09,11,11,50,25.10
2013,09,11,11,51,25.10
2013,09,11,11,52,25.10
2013,09,11,11,53,25.10
2013,09,11,11,54,25.20
2013,09,11,11,55,25.20
2013,09,11,11,56,25.20
2013,09,11,11,57,25.30
2013,09,11,11,58,25.30
2013,09,11,11,59,25.40
2013,09,11,12,00,25.40
2013,09,11,12,01,25.30
2013,09,11,12,02,25.20
2013,09,11,12,03,25.10
2013,09,11,12,04,25.00
2013,09,11,12,05,24.90
2013,09,11,12,06,24.80
2013,09,11,12,07,24.80
2013,09,11,12,08,24.80
2013,09,11,12,09,24.80
2013,09,11,12,10,24.80
2013,09,11,12,11,24.70
2013,09,11,12,12,24.80
2013,09,11,12,13,24.70
2013,09,11,12,14,24.70
2013,09,11,12,15,24.70
2013,09,11,12,16,24.70
2013,09,11,12,17,24.60
2013,09,11,12,18,24.60
2013,09,11,12,19,24.70
2013,09,11,12,20,24.70
2013,09,11,12,21,24.80
2013,09,11,12,22,24.80
2013,09,11,12,23,24.80
2013,09,11,12,24,24.80
2013,09,11,12,25,24.80
2013,09,11,12,26,24.80
2013,09,11,12,27,24.70
2013,09,11,12,28,24.60
2013,09,11,12,29,24.60
2013,09,11,12,30,24.50
2013,09,11,12,31,24.40
2013,09,11,12,32,24.30
2013,09,11,12,33,24.20
2013,09,11,12,34,24.20
2013,09,11,12,35,24.20
2013,09,11,12,36,24.20
2013,09,11,12,37,24.20
2013,09,11,12,38,24.20
2013,09,11,12,39,24.20
2013,09,11,12,40,24.20
2013,09,11,12,41,24.20
2013,09,11,12,42,24.30
2013,09,11,12,43,24.30
2013,09,11,12,44,24.40
2013,09,11,12,45,24.50
2013,09,11,12,46,24.60
2013,09,11,12,47,24.60
2013,09,11,12,48,24.60
2013,09,11,12,49,24.70
2013,09,11,12,50,24.60
2013,09,11,12,51,24.60
2013,09,11,12,52,24.50
2013,09,11,12,53,24.40
2013,09,11,12,54,24.30
2013,09,11,12,55,24.30
2013,09,11,12,56,24.30
2013,09,11,12,57,24.30
2013,09,11,12,58,24.30
2013,09,11,12,59,24.30
2013,09,11,13,00,24.30
2013,09,11,13,01,24.40
2013,09,11,13,02,24.50
2013,09,11,13,03,24.50
2013,09,11,13,04,24.70
2013,09,11,13,05,24.80
2013,09,11,13,06,24.90
2013,09,11,13,07,24.90
2013,09,11,13,08,25.00
2013,09,11,13,09,25.00
2013,09,11,13,10,25.00
2013,09,11,13,11,25.00
2013,09,11,13,12,25.00
2013,09,11,13,13,25.00
2013,09,11,13,14,25.00
2013,09,11,13,15,25.10
2013,09,11,13,16,25.20
2013,09,11,13,17,25.30
2013,09,11,13,18,25.40
2013,09,11,13,19,25.40
2013,09,11,13,20,25.40
2013,09,11,13,21,25.50
2013,09,11,13,22,25.50
2013,09,11,13,23,25.60
2013,09,11,13,24,25.60
2013,09,11,13,25,25.60
2013,09,11,13,26,25.70
2013,09,11,13,27,25.70
2013,09,11,13,28,25.70
2013,09,11,13,29,25.70
2013,09,11,13,30,25.70
2013,09,11,13,31,25.70
2013,09,11,13,32,25.70
2013,09,11,13,33,25.70
2013,09,11,13,34,25.80
2013,09,11,13,35,25.90
2013,09,11,13,36,25.90
2013,09,11,13,37,26.00
2013,09,11,13,38,26.10
2013,09,11,13,39,26.10
2013,09,11,13,40,26.30
2013,09,11,13,41,26.30
2013,09,11,13,42,26.40
2013,09,11,13,43,26.50
2013,09,11,13,44,26.50
2013,09,11,13,45,26.60
2013,09,11,13,46,26.70
2013,09,11,13,47,26.70
2013,09,11,13,48,26.80
2013,09,11,13,49,26.80
2013,09,11,13,50,26.90
2013,09,11,13,51,26.90
2013,09,11,13,52,27.00
2013,09,11,13,53,27.10
2013,09,11,13,54,27.20
2013,09,11,13,55,27.20
2013,09,11,13,56,27.20
2013,09,11,13,57,27.20
2013,09,11,13,58,27.20
2013,09,11,13,59,27.30
2013,09,11,14,00,27.40
2013,09,11,14,01,27.40
2013,09,11,14,02,27.40
2013,09,11,14,03,27.40
2013,09,11,14,04,27.40
2013,09,11,14,05,27.40
2013,09,11,14,06,27.40
2013,09,11,14,07,27.40
2013,09,11,14,08,27.50
2013,09,11,14,09,27.50
2013,09,11,14,10,27.40
2013,09,11,14,11,27.20
2013,09,11,14,12,26.80
2013,09,11,14,13,26.40
2013,09,11,14,14,26.00
2013,09,11,14,15,25.60
2013,09,11,14,16,25.30
2013,09,11,14,17,25.10
2013,09,11,14,18,24.90
2013,09,11,14,19,24.80
2013,09,11,14,20,24.70
2013,09,11,14,21,24.60
2013,09,11,14,22,24.50
2013,09,11,14,23,24.40
2013,09,11,14,24,24.30
2013,09,11,14,25,24.30
2013,09,11,14,26,24.20
2013,09,11,14,27,24.20
2013,09,11,14,28,24.20
2013,09,11,14,29,24.20
2013,09,11,14,30,24.30
2013,09,11,14,31,24.30
2013,09,11,14,32,24.40
2013,09,11,14,33,24.60
2013,09,11,14,34,24.80
2013,09,11,14,35,25.20
2013,09,11,14,36,25.50
2013,09,11,14,37,25.70
2013,09,11,14,38,25.90
2013,09,11,14,39,26.20
2013,09,11,14,40,26.30
2013,09,11,14,41,26.50
2013,09,11,14,42,26.60
2013,09,11,14,43,26.70
2013,09,11,14,44,26.80
2013,09,11,14,45,26.80
2013,09,11,14,46,26.80
2013,09,11,14,47,26.80
2013,09,11,14,48,26.90
2013,09,11,14,49,27.00
2013,09,11,14,50,27.10
2013,09,11,14,51,27.10
2013,09,11,14,52,27.10
2013,09,11,14,53,27.10
2013,09,11,14,54,27.10
2013,09,11,14,55,27.10
2013,09,11,14,56,27.00
2013,09,11,14,57,26.90
2013,09,11,14,58,26.90
2013,09,11,14,59,26.90
2013,09,11,15,00,26.80
2013,09,11,15,01,26.70
2013,09,11,15,02,26.60
2013,09,11,15,03,26.60
2013,09,11,15,04,26.60
2013,09,11,15,05,26.50
2013,09,11,15,06,26.50
2013,09,11,15,07,26.40
2013,09,11,15,08,26.40
2013,09,11,15,09,26.40
2013,09,11,15,10,26.40
2013,09,11,15,11,26.40
2013,09,11,15,12,26.40
2013,09,11,15,13,26.40
2013,09,11,15,14,26.40
2013,09,11,15,15,26.50
2013,09,11,15,16,26.50
2013,09,11,15,17,26.60
2013,09,11,15,18,26.70
2013,09,11,15,19,26.70
2013,09,11,15,20,26.70
2013,09,11,15,21,26.70
2013,09,11,15,22,26.70
2013,09,11,15,23,26.70
2013,09,11,15,24,26.70
2013,09,11,15,25,26.70
2013,09,11,15,26,26.60
2013,09,11,15,27,26.40
2013,09,11,15,28,26.20
2013,09,11,15,29,26.00
2013,09,11,15,30,25.80
2013,09,11,15,31,25.70
2013,09,11,15,32,25.60
2013,09,11,15,33,25.60
2013,09,11,15,34,25.60
2013,09,11,15,35,25.50
2013,09,11,15,36,25.40
2013,09,11,15,37,25.40
2013,09,11,15,38,25.40
2013,09,11,15,39,25.30
2013,09,11,15,40,25.20
2013,09,11,15,41,25.10
2013,09,11,15,42,24.90
2013,09,11,15,43,24.80
2013,09,11,15,44,24.70
2013,09,11,15,45,24.60
2013,09,11,15,46,24.50
2013,09,11,15,47,24.40
2013,09,11,15,48,24.40
2013,09,11,15,49,24.50
2013,09,11,15,50,24.50
2013,09,11,15,51,24.50
2013,09,11,15,52,24.60
2013,09,11,15,53,24.60
2013,09,11,15,54,24.70
2013,09,11,15,55,24.70
2013,09,11,15,56,24.70
2013,09,11,15,57,24.80
2013,09,11,15,58,24.80
2013,09,11,15,59,24.90
2013,09,11,16,00,24.90
2013,09,11,16,01,24.90
2013,09,11,16,02,24.90
2013,09,11,16,03,24.90
2013,09,11,16,04,24.90
2013,09,11,16,05,25.00
2013,09,11,16,06,24.90
2013,09,11,16,07,24.90
2013,09,11,16,08,24.90
2013,09,11,16,09,24.80
2013,09,11,16,10,24.80
2013,09,11,16,11,24.80
2013,09,11,16,12,24.80
2013,09,11,16,13,24.90
2013,09,11,16,14,24.90
2013,09,11,16,15,24.90
2013,09,11,16,16,24.90
2013,09,11,16,17,24.80
2013,09,11,16,18,24.80
2013,09,11,16,19,24.80
2013,09,11,16,20,24.70
2013,09,11,16,21,24.70
2013,09,11,16,22,24.70
2013,09,11,16,23,24.70
2013,09,11,16,24,24.70
2013,09,11,16,25,24.70
2013,09,11,16,26,24.70
2013,09,11,16,27,24.70
2013,09,11,16,28,24.70
2013,09,11,16,29,24.70
2013,09,11,16,30,24.70
2013,09,11,16,31,24.60
2013,09,11,16,32,24.60
2013,09,11,16,33,24.60
2013,09,11,16,34,24.70
2013,09,11,16,35,24.70
2013,09,11,16,36,24.70
2013,09,11,16,37,24.70
2013,09,11,16,38,24.70
2013,09,11,16,39,24.70
2013,09,11,16,40,24.70
2013,09,11,16,41,24.80
2013,09,11,16,42,24.90
2013,09,11,16,43,24.90
2013,09,11,16,44,25.00
2013,09,11,16,45,25.10
2013,09,11,16,46,25.10
2013,09,11,16,47,25.10
2013,09,11,16,48,25.10
2013,09,11,16,49,25.00
2013,09,11,16,50,24.90
2013,09,11,16,51,24.80
2013,09,11,16,52,24.70
2013,09,11,16,53,24.70
2013,09,11,16,54,24.70
2013,09,11,16,55,24.70
2013,09,11,16,56,24.70
2013,09,11,16,57,24.70
2013,09,11,16,58,24.60
2013,09,11,16,59,24.60
2013,09,11,17,00,24.50
2013,09,11,17,01,24.40
2013,09,11,17,02,24.40
2013,09,11,17,03,24.30
2013,09,11,17,04,24.30
2013,09,11,17,05,24.30
2013,09,11,17,06,24.40
2013,09,11,17,07,24.40
2013,09,11,17,08,24.40
2013,09,11,17,09,24.40
2013,09,11,17,10,24.40
2013,09,11,17,11,24.40
2013,09,11,17,12,24.40
2013,09,11,17,13,24.40
2013,09,11,17,14,24.40
2013,09,11,17,15,24.50
2013,09,11,17,16,24.50
2013,09,11,17,17,24.60
2013,09,11,17,18,24.70
2013,09,11,17,19,24.70